This is the latest recevied weather packets stored in our database for station/object KI5QCM. If no packets are shown the sender has not sent any weather packets the latest 10 day(s).
| Time | Temp. | Humidity | Pressure | Rain* | Wind** | Luminosity | Snow |
|---|---|---|---|---|---|---|---|
| 1788122735 | 39.44° C | 33% | 1012.1 hPa | 0 mm | - | 553 W/m² | - |
| 1788122169 | 39.44° C | 34% | 1012.1 hPa | 0 mm | - | 609 W/m² | - |
| 1788121529 | 39.44° C | 35% | 1012.2 hPa | 0 mm | - | 597 W/m² | - |
| 1788120933 | 39.44° C | 36% | 1012.5 hPa | 0 mm | - | 637 W/m² | - |
| 1788120361 | 38.89° C | 35% | 1012.5 hPa | 0 mm | - | 647 W/m² | - |
| 1788119786 | 38.33° C | 37% | 1012.7 hPa | 0 mm | - | 659 W/m² | - |
| 1788119129 | 38.89° C | 36% | 1012.7 hPa | 0 mm | - | 676 W/m² | - |
| 1788118553 | 38.89° C | 37% | 1013 hPa | 0 mm | - | 703 W/m² | - |
| 1788117977 | 38.33° C | 37% | 1013 hPa | 0 mm | - | 688 W/m² | - |
| 1788117337 | 38.89° C | 38% | 1013 hPa | 0 mm | - | 693 W/m² | - |
| 1788116762 | 38.33° C | 39% | 1013.2 hPa | 0 mm | - | 680 W/m² | - |
| 1788116169 | 38.33° C | 38% | 1013.2 hPa | 0 mm | - | 679 W/m² | - |
| 1788115529 | 37.78° C | 39% | 1013.2 hPa | 0 mm | - | 681 W/m² | - |
| 1788114953 | 37.78° C | 40% | 1013.3 hPa | 0 mm | - | 671 W/m² | - |
| 1788114377 | 37.22° C | 41% | 1013.3 hPa | 0 mm | - | 696 W/m² | - |
| 1788113737 | 37.22° C | 41% | 1013.5 hPa | 0 mm | - | 656 W/m² | - |
| 1788113162 | 37.22° C | 41% | 1013.7 hPa | 0 mm | - | 703 W/m² | - |
| 1788112521 | 37.22° C | 42% | 1013.8 hPa | 0 mm | - | 707 W/m² | - |
| 1788111946 | 36.67° C | 43% | 1013.9 hPa | 0 mm | - | 678 W/m² | - |
| 1788111369 | 36.11° C | 44% | 1014.2 hPa | 0 mm | - | 677 W/m² | - |
| 1788110729 | 36.11° C | 44% | 1014.3 hPa | 0 mm | - | 708 W/m² | - |
| 1788110137 | 35.56° C | 45% | 1014.3 hPa | 0 mm | - | 654 W/m² | - |
| 1788109545 | 35° C | 46% | 1014.3 hPa | 0 mm | - | 682 W/m² | - |
| 1788108953 | 34.44° C | 48% | 1014.4 hPa | 0 mm | - | 678 W/m² | - |
| 1788108377 | 33.89° C | 49% | 1014.6 hPa | 0 mm | - | 725 W/m² | - |
* Rain latest hour (hover to see other rain measurements)
** Current wind speed in m/s (hover to see current wind gust speed)